Regional Weather Roundup
Issued by NWS Sioux Falls, SD

Home | Current Version | Previous Version | Text Only | Print | Product List | Glossary On
Versions: 1 2 3 4 5 6 7 8 9 10 11 12 13 14 15 16 17 18 19 20 21 22 23 24 25 26 27 28 29 30 31 32 33 34 35 36 37 38 39 40 41 42 43 44 45 46 47 48 49 50
000
ASUS43 KFSD 290302
RWRFSD

WEATHER ROUNDUP FOR SE SOUTH DAKOTA/SW MINNESOTA/NW IOWA
NATIONAL WEATHER SERVICE SIOUX FALLS SD
1000 PM CDT WED SEP 28 2016

NOTE: "FAIR" INDICATES FEW OR NO CLOUDS BELOW 12,000 FEET WITH NO
SIGNIFICANT WEATHER AND OR OBSTRUCTIONS TO VISIBILITY.


SDZ038>040-050-052>070-290400-
SOUTHEAST SOUTH DAKOTA

CITY           SKY/WX    TMP DP  RH WIND       PRES   REMARKS
CHAMBERLAIN    CLEAR     52  47  83 E3        30.35R
HURON          CLEAR     50  45  83 E7        30.36R
MADISON        FAIR      48  48 100 N3        30.36R
MITCHELL       CLEAR     50  44  80 SE7       30.36R
SIOUX FALLS    CLEAR     49  45  86 CALM      30.35R
WINNER         FAIR      52  44  74 SE10      30.35R
YANKTON        CLEAR     52  45  76 E5        30.34R
$$

MNZ071-072-080-081-089-090-097-098-290400-
SOUTHWEST MINNESOTA

CITY           SKY/WX    TMP DP  RH WIND       PRES   REMARKS
FAIRMONT       MOCLDY    49  47  93 N6        30.34R
JACKSON        CLEAR     46  43  87 NE5       30.35R
LUVERNE        CLEAR     46  43  87 NE3       30.36R
MARSHALL       PTCLDY    52  46  80 E7        30.36R
MONTEVIDEO     CLEAR     48  45  87 E6        30.39R
PIPESTONE      CLEAR     48  43  81 NE3       30.35R
REDWOOD FALLS  MOCLDY    57  47  69 VRB3      30.36R
TRACY          CLEAR     53  48  83 E3        30.36R
WINDOM         CLEAR     52  46  82 NE5       30.35R
WORTHINGTON    CLEAR     50  46  86 NE6       30.36R
$$

IAZ001>003-012>014-020>022-031-032-NEZ013-014-SDZ071-290400-
NORTHWEST IOWA

CITY           SKY/WX    TMP DP  RH WIND       PRES   REMARKS
CHEROKEE       CLEAR     51  48  90 CALM      30.33R
DENISON        CLEAR     52  46  82 CALM      30.30R HAZE
ESTHERVILLE    CLEAR     49  48  97 N7        30.33R
LE MARS        CLEAR     48  45  87 N3        30.34S
ORANGE CITY    CLEAR     52  46  82 CALM      30.34R
SHELDON        PTCLDY    45  45 100 CALM      30.33R
SIOUX CITY     CLEAR     55  46  71 N7        30.33R
SPENCER        CLEAR     50  46  86 NE7       30.34R
STORM LAKE     CLEAR     54  46  76 N7        30.33R
$$

ABBREVIATIONS USED IN REMARKS
   TC - TEMPERATURE IN CELSIUS
  WCI - WIND CHILL INDEX
   HX - HEAT INDEX
  VSB - VISIBILITY





USA.gov is the U.S. government's official web portal to all federal, state and local government web resources and services.